Location: Dittelbrunn
(50.0738°N, 10.2196°E)
Time: 13:19:35
(UTC+00:00)

MOS 1 Rocket - Pass Details

Date: 18 September 2020
Orbit: 614 x 831 km, 97.4° (Epoch: 22 October)

Event Time Altitude Azimuth Distance (km) Brightness Sun altitude
Rises 18:56:17 0° 10° (N) 3,049 6.8 -15.1°
Reaches altitude 10° 18:58:36 10° 8° (N) 2,099 5.9 -15.4°
Maximum altitude 19:03:06 63° 288° (WNW) 719 3.6 -16.1°
Drops below altitude 10° 19:07:22 10° 207° (SSW) 1,994 5.7 -16.7°
Sets 19:09:31 0° 204° (SSW) 2,883 6.5 -17.0°
